Home   Weather   Lübbecke   Past weeks
Flag for Germany

Past Weather in Lübbecke, North Rhine-Westphalia, Germany — Yesterday and Last 2 Weeks

Now
59 °F

Scattered clouds.


Feels Like: 56 °F
Forecast: 56 / 43 °F
Wind: 18 mph from West

Location: Bueckeburg

Current Time: Sep 17, 2019 at 12:39:45 pm

Latest Report: Sep 17, 2019 at 11:20 am


Visibility: N/A

Pressure: 30.04 "Hg

Humidity: 68%

Dew Point: 48 °F

Location of LübbeckeLocation

Past Weather in Lübbecke — Graph

°F

Lübbecke Temperature Yesterday

Maximum temperature yesterday: 59 °F (at 12:20 am)
Minimum temperature yesterday: 52 °F (at 6:32 am)
Average temperature yesterday: 55 °F

High & Low Weather Summary for the Past Weeks

 TemperatureHumidityPressure
High75 °F (Sep 15, 3:20 pm)100% (Sep 8, 3:20 am)30.57 "Hg (Sep 8, 3:20 am)
Low43 °F (Sep 14, 6:20 am)31% (Sep 15, 3:20 pm)29.86 "Hg (Sep 4, 5:20 pm)
Average59 °F74%30.15 "Hg
* Reported Sep 2 11:20 am — Sep 17 11:20 am, Lübbecke. Weather by CustomWeather, © 2019

Note: Actual official high and low records may vary slightly from our data, if they occured in-between our weather recording intervals... More about our weather records

Advertising

Lübbecke Weather History for the Previous 24 Hours

Scroll right to see more
 ConditionsComfort  
Time TempWeatherWind HumidityBarometerVisibility
11:20 am
Tue, Sep 17
59 °FScattered clouds.18 mph68%30.04 "HgN/A
10:20 am57 °FPartly sunny.17 mph72%30.04 "HgN/A
9:20 am54 °FScattered clouds.13 mph82%30.07 "HgN/A
8:20 am52 °FPassing clouds.10 mph88%30.07 "HgN/A
7:20 am50 °FPartly sunny.6 mph94%30.07 "HgN/A
6:20 am48 °FPassing clouds.7 mph94%30.07 "HgN/A
5:20 am48 °FPassing clouds.7 mph94%30.07 "HgN/A
4:20 am48 °FPassing clouds.6 mph94%30.07 "HgN/A
3:20 am50 °FPassing clouds.5 mph88%30.07 "HgN/A
2:20 am48 °FCool.8 mph94%30.09 "HgN/A
1:20 am48 °FFog.6 mph100%30.09 "HgN/A
12:20 am52 °FFog.3 mph94%30.09 "HgN/A
11:20 pm
Mon, Sep 16
52 °FPassing clouds.7 mph94%30.09 "HgN/A
10:20 pm54 °FPartly cloudy.6 mph94%30.09 "HgN/A
9:20 pm55 °FPartly cloudy.6 mph88%30.09 "HgN/A
8:20 pm57 °FPartly cloudy.3 mph88%30.09 "HgN/A
7:20 pm57 °FBroken clouds.5 mph82%30.09 "HgN/A
6:20 pm57 °FBroken clouds.7 mph82%30.09 "HgN/A
5:20 pm57 °FBroken clouds.7 mph82%30.09 "HgN/A
4:20 pm57 °FBroken clouds.3 mph88%30.09 "HgN/A
3:20 pm57 °FScattered showers. Partly sunny.3 mph88%30.09 "Hg5 mi
3:11 pm55 °FPartly sunny.3 mph88%30.09 "HgN/A
2:46 pm55 °FBroken clouds.1 mph88%30.09 "HgN/A
2:20 pm55 °FBroken clouds.5 mph94%30.09 "HgN/A
1:52 pm55 °FDrizzle. Partly sunny.3 mph94%30.09 "Hg5 mi
1:39 pm55 °FDrizzle. Partly sunny.3 mph94%30.12 "Hg3 mi
1:20 pm55 °FDrizzle. Partly sunny.3 mph94%30.12 "Hg6 mi
12:47 pm54 °FDrizzle. Mostly cloudy.3 mph94%30.12 "Hg4 mi
12:20 pm54 °FDrizzle. Mostly cloudy.2 mph94%30.12 "Hg2 mi
12:12 pm54 °FDrizzle. Mostly cloudy.2 mph94%30.12 "Hg3 mi
Weather by CustomWeather, © 2019

See weather overview